WetterOnline ( http://www.wetteronline.de )

Wetter aktuell Luckenwalde

Aktuelles Wetter: Baruth (55m)

6-stündlich | Neueste Meldungen
Ortszeit Temperatur Wetter
So, 19.08. 2:00 12.8° C bedeckt
Sa, 18.08. 20:00 23.5° C leicht bewölkt
Sa, 18.08. 14:00 23.7° C bedeckt
Sa, 18.08. 8:00 18.3° C wolkig
Sa, 18.08. 2:00 20.6° C wolkig
Fr, 17.08. 20:00 28.7° C wolkig
Fr, 17.08. 14:00 31.1° C wolkig
Fr, 17.08. 8:00 17.6° C leicht bewölkt
Ortszeit Temperatur Wetter
So, 19.08. 2:00 12.8° C bedeckt
So, 19.08. 1:40 12.7° C leicht bewölkt
So, 19.08. 1:30 13.3° C wolkig
So, 19.08. 1:20 13.3° C wolkig
So, 19.08. 1:10 13.2° C wolkig
So, 19.08. 1:00 13.6° C wolkig
So, 19.08. 0:50 13.6° C wolkig
So, 19.08. 0:30 13.8° C wolkig
So, 19.08. 0:00 14.3° C wolkig
Sa, 18.08. 23:30 15.0° C wolkig
Sa, 18.08. 23:00 15.5° C leicht bewölkt
Sa, 18.08. 22:30 16.0° C leicht bewölkt
Ortszeit Relative Feuchte Sichtweite
So, 19.08. 2:00 95% 9 km
Sa, 18.08. 20:00 55% 50 km
Sa, 18.08. 14:00 48% 70 km
Sa, 18.08. 8:00 76% 55 km
Sa, 18.08. 2:00 63% 70 km
Fr, 17.08. 20:00 39% 40 km
Fr, 17.08. 14:00 29% 65 km
Fr, 17.08. 8:00 67% 35 km
Ortszeit Relative Feuchte Sichtweite
So, 19.08. 2:00 95% 9 km
So, 19.08. 1:40 94% -
So, 19.08. 1:30 94% 12 km
So, 19.08. 1:20 94% -
So, 19.08. 1:10 94% -
So, 19.08. 1:00 94% 9 km
So, 19.08. 0:50 94% -
So, 19.08. 0:30 94% 9 km
So, 19.08. 0:00 94% 8 km
Sa, 18.08. 23:30 93% 16 km
Sa, 18.08. 23:00 91% 19 km
Sa, 18.08. 22:30 90% 18 km
Ortszeit Niederschlagsmenge Niederschlagsart
So, 19.08. 2:00 0.0 l/m2 in 6 Std. -
Sa, 18.08. 20:00 0.0 l/m2 in 12 Std. -
Sa, 18.08. 14:00 0.0 l/m2 in 6 Std. -
Sa, 18.08. 8:00 0.1 l/m2 in 12 Std. Regen
Sa, 18.08. 2:00 0.0 l/m2 in 6 Std. -
Fr, 17.08. 20:00 0.0 l/m2 in 12 Std. -
Fr, 17.08. 14:00 0.0 l/m2 in 6 Std. -
Fr, 17.08. 8:00 0.0 l/m2 in 12 Std. -
Ortszeit Niederschlagsmenge Niederschlagsart
So, 19.08. 2:00 0.0 l/m2 in 1 Std. -
So, 19.08. 1:40 keine Meldung -
So, 19.08. 1:30 0.0 l/m2 in 1 Std. -
So, 19.08. 1:20 keine Meldung -
So, 19.08. 1:10 keine Meldung -
So, 19.08. 1:00 0.0 l/m2 in 1 Std. -
So, 19.08. 0:50 keine Meldung -
So, 19.08. 0:30 0.0 l/m2 in 1 Std. -
So, 19.08. 0:00 0.0 l/m2 in 1 Std. -
Sa, 18.08. 23:30 0.0 l/m2 in 1 Std. -
Sa, 18.08. 23:00 0.0 l/m2 in 1 Std. -
Sa, 18.08. 22:30 0.0 l/m2 in 1 Std. -
Ortszeit Stärke Spitze Richtung
km/h Bft. km/h Grad Sektor
So, 19.08. 2:00 2 1 7 110° O
Sa, 18.08. 20:00 6 1 19 280° W
Sa, 18.08. 14:00 9 2 17 300° NW
Sa, 18.08. 8:00 6 1 17 330° NW
Sa, 18.08. 2:00 7 2 32 300° NW
Fr, 17.08. 20:00 13 3 26 320° NW
Fr, 17.08. 14:00 4 1 25 180° S
Fr, 17.08. 8:00 11 2 18 120° SO
Ortszeit Stärke Spitze Richtung
km/h Bft. km/h Grad Sektor
So, 19.08. 2:00 2 1 4 110° O
So, 19.08. 1:40 2 1 - 130° SO
So, 19.08. 1:30 2 1 4 90° O
So, 19.08. 1:20 2 1 - 90° O
So, 19.08. 1:10 2 1 - 110° O
So, 19.08. 1:00 0 0 4 - -
So, 19.08. 0:50 0 0 - 80° O
So, 19.08. 0:30 0 0 4 - -
So, 19.08. 0:00 0 0 4 - -
Sa, 18.08. 23:30 0 0 4 - -
Sa, 18.08. 23:00 0 0 4 - -
Sa, 18.08. 22:30 2 1 4 230° SW
Ortszeit Untergrenze Bedeckung Gattung
total tief tief mittel hoch
So, 19.08. 2:00 - 8/8 - - - -
Sa, 18.08. 20:00 9000 m 6/8 0/8 - - -
Sa, 18.08. 14:00 1440 m 8/8 8/8 - - -
Sa, 18.08. 8:00 2700 m 6/8 6/8 - - -
Sa, 18.08. 2:00 2400 m 8/8 2/8 - - -
Fr, 17.08. 20:00 3300 m 7/8 7/8 - - -
Fr, 17.08. 14:00 2400 m 6/8 6/8 - - -
Fr, 17.08. 8:00 10500 m 8/8 0/8 - - -
Ortszeit Bedeckungsgrad in Achtel und Wolkenuntergrenze
So, 19.08. 2:00 8
So, 19.08. 1:40 1(1800m) 3(9000m) 3(10500m)
So, 19.08. 1:30 3(8700m) 7(9000m) 7(10500m)
So, 19.08. 1:20 3(8700m) 7(9000m) 7(10500m)
So, 19.08. 1:10 4(8700m) 8(9000m) 8(10500m)
So, 19.08. 1:00 5(9000m) 8(9000m) 8(10500m)
So, 19.08. 0:50 5(9000m) 8(9000m) 8(10500m)
So, 19.08. 0:30 7(9000m) 8(9000m) 8(10500m)
So, 19.08. 0:00 6(8700m) 8(9000m) 8(10500m)
Sa, 18.08. 23:30 7(10500m) 8(10500m) 8(10500m)
Sa, 18.08. 23:00 3(9000m) 5(10500m) 7(10500m)
Sa, 18.08. 22:30 5(9000m) 6(9000m)
Ortszeit Luftdruck NN (hPa) Tendenz (hPa in 3 Std.)
So, 19.08. 2:00 1021 + 0,1
Sa, 18.08. 20:00 1020 - 0,4
Sa, 18.08. 14:00 1021 - 0,1
Sa, 18.08. 8:00 1020 + 0,6
Sa, 18.08. 2:00 1019 + 2,5
Fr, 17.08. 20:00 1014 + 0,6
Fr, 17.08. 14:00 1013 - 0,9
Fr, 17.08. 8:00 1014 + 0,3
Ortszeit Luftdruck NN (hPa) Tendenz (hPa in 3 Std.)
So, 19.08. 2:00 1021 + 0,1
So, 19.08. 1:40 1021 keine Meldung
So, 19.08. 1:30 1021 + 0,2
So, 19.08. 1:20 1021 keine Meldung
So, 19.08. 1:10 1021 keine Meldung
So, 19.08. 1:00 1021 + 0,2
So, 19.08. 0:50 1021 keine Meldung
So, 19.08. 0:30 1021 + 0,5
So, 19.08. 0:00 1021 + 0,6
Sa, 18.08. 23:30 1021 + 1,0
Sa, 18.08. 23:00 1021 + 1,2
Sa, 18.08. 22:30 1021 + 1,3
Ortszeit Schneehöhe (cm)
So, 19.08. 2:00 -
Sa, 18.08. 20:00 -
Sa, 18.08. 14:00 -
Sa, 18.08. 8:00 -
Sa, 18.08. 2:00 -
Fr, 17.08. 20:00 -
Fr, 17.08. 14:00 -
Fr, 17.08. 8:00 -
Ortszeit Schneehöhe (cm)
So, 19.08. 2:00 -
So, 19.08. 1:40 -
So, 19.08. 1:30 -
So, 19.08. 1:20 -
So, 19.08. 1:10 -
So, 19.08. 1:00 -
So, 19.08. 0:50 -
So, 19.08. 0:30 -
So, 19.08. 0:00 -
Sa, 18.08. 23:30 -
Sa, 18.08. 23:00 -
Sa, 18.08. 22:30 -
Link zu dieser Seite / Seite empfehlen

Das Wetter in ...